Wetbulb
60.90 59.06 57.73 57.55 50.35 49.64 47.63 48.82 57.41 57.46 57.22 61.29 62.26 60.76 60.33 62.07 58.63 55.45 68.25 69.90 70.62 71.11 71.46 71.74 70.99 71.64 71.93 72.29 72.29 72.33 72.14 71.38 70.81 70.71 70.31 70.12 70.10 70.27 70.31 69.47 69.11 68.25 67.40 67.06 66.83 66.15 65.18 64.71 64.30
57.46 55.93 56.80 55.97 47.39 45.31 47.47 49.68 54.00 58.62 60.42 61.02 60.83 61.03 59.79 58.31 64.60 64.77 66.88 69.81 70.44 70.35 71.71 72.02 70.53 71.33 72.14 72.10 72.07 72.00 71.72 71.00 70.82 70.31 69.83 69.83 69.94 69.58 68.84 68.76 68.93 67.54 66.37 65.88 65.01 64.60 63.98 63.95 64.07
58.03 56.21 54.01 51.40 48.95 46.34 47.17 54.08 58.52 59.46 60.05 57.89 55.77 59.42 57.58 57.85 64.45 65.13 69.21 70.13 70.04 70.91 72.20 72.04 70.42 70.94 71.53 71.65 71.53 71.47 71.42 71.23 70.95 70.33 69.73 69.60 68.93 68.52 68.34 67.74 67.77 67.01 65.61 64.97 64.43 63.84 63.34 63.62 63.81
55.41 55.04 53.71 47.93 46.52 48.29 51.51 58.35 60.24 58.40 59.22 59.15 56.23 54.45 60.89 64.84 63.93 66.94 69.71 69.98 70.30 70.94 72.25 70.49 69.81 70.35 71.46 71.37 71.45 71.31 71.04 70.51 70.18 70.22 69.52 68.38 68.06 67.91 67.28 66.97 67.29 65.40 64.77 64.49 64.10 63.29 62.86 63.44 63.94
56.58 54.15 47.20 45.83 46.49 49.16 54.92 59.78 59.78 57.60 56.64 56.14 57.06 54.67 58.46 65.06 67.47 69.40 69.54 69.90 69.82 70.53 71.54 71.71 68.73 69.69 71.03 71.69 71.36 70.84 70.41 70.21 69.98 69.97 69.08 68.07 67.74 66.80 66.19 66.04 65.48 65.00 64.52 64.19 63.93 63.76 63.75 63.75 63.77
51.47 52.46 45.36 43.99 47.65 51.56 58.01 59.63 59.09 58.00 57.03 56.41 55.77 57.30 59.66 66.30 67.07 68.40 69.33 69.54 70.01 69.60 70.49 70.83 70.02 70.20 70.56 70.73 70.24 69.55 69.48 69.55 69.29 68.82 68.64 68.01 67.31 66.55 65.40 65.07 64.74 64.24 64.24 64.04 63.80 63.79 63.89 63.97 63.44
50.36 48.46 45.85 47.96 48.85 52.21 56.79 60.26 56.80 55.96 56.64 57.23 60.18 56.37 60.99 64.14 67.07 67.89 68.97 68.84 70.11 70.38 70.41 70.77 71.01 70.38 68.98 68.41 68.30 68.23 68.54 68.20 67.87 67.69 67.60 66.97 66.48 66.13 65.72 65.64 64.86 64.70 64.65 64.26 64.13 64.06 64.02 63.57 62.79
53.39 50.19 47.94 50.38 50.32 52.37 58.03 56.72 57.40 54.06 55.77 61.66 61.98 56.47 58.34 62.73 66.14 67.59 68.83 69.65 70.22 70.30 69.81 68.69 68.71 69.26 69.55 69.59 67.43 67.18 67.02 66.68 66.63 66.65 65.94 65.26 64.91 64.92 64.44 65.04 64.98 64.62 64.38 64.40 64.20 63.78 63.13 61.89 61.31
53.70 47.54 47.39 51.08 52.25 52.35 57.89 55.06 56.93 58.78 57.58 58.85 59.19 61.35 64.55 65.70 66.68 66.95 66.94 67.60 67.56 67.09 67.50 67.16 67.09 67.76 67.83 67.73 67.82 66.36 66.39 65.98 65.67 65.65 64.94 64.56 66.75 66.58 65.82 64.10 64.65 64.34 63.59 63.26 62.98 62.24 61.43 61.80 61.41
50.91 47.53 47.54 54.10 56.55 53.81 53.14 55.27 55.66 55.70 55.87 55.84 58.91 64.24 65.84 66.24 65.90 64.82 64.52 63.94 63.28 63.02 64.02 65.62 65.99 65.99 66.37 65.07 66.76 66.95 65.91 66.67 67.43 67.09 67.06 67.83 68.13 67.95 66.45 65.02 63.00 62.56 61.47 61.35 60.90 61.01 61.71 62.67 63.07
50.70 47.68 50.38 49.72 56.38 55.61 52.65 55.88 58.16 55.70 55.40 57.76 58.27 62.47 64.16 64.77 64.56 64.43 62.90 60.71 60.47 62.16 62.91 64.27 65.31 65.92 65.56 65.57 65.87 65.68 66.63 67.40 67.95 68.21 68.73 68.57 68.73 69.17 68.91 68.55 67.57 67.08 61.71 65.28 64.23 64.77 63.46 62.21 61.47
47.69 49.96 48.80 50.59 56.02 53.87 54.97 57.45 56.59 57.59 56.32 59.56 61.48 64.81 64.58 63.51 63.51 61.47 59.41 59.16 60.40 61.95 62.89 63.86 64.74 65.30 65.63 65.32 65.82 66.55 67.21 68.01 68.35 68.44 68.81 69.18 68.16 69.11 68.27 67.54 66.75 65.73 65.45 64.36 63.74 63.15 61.74 60.74 59.54
48.62 48.58 48.64 54.43 54.13 53.28 56.12 55.67 56.39 55.26 59.16 61.93 64.06 63.91 62.70 61.87 60.08 58.83 58.89 59.99 61.79 62.20 63.28 64.04 64.49 64.79 65.24 65.78 66.53 66.85 67.85 68.19 68.18 69.00 68.45 68.03 67.61 67.10 66.92 66.06 65.65 63.95 63.71 62.76 61.91 61.19 60.27 59.33 58.94
49.64 46.68 47.81 50.19 52.75 52.46 53.37 54.67 56.74 55.68 59.95 61.07 62.37 61.62 60.11 59.21 57.87 58.17 58.11 59.14 61.65 63.40 64.00 65.35 65.21 65.53 65.56 65.43 65.69 65.18 64.84 65.67 67.70 67.38 66.25 64.23 64.70 64.16 65.30 64.80 63.59 62.67 61.13 60.26 59.62 58.63 58.25 57.94 58.00
47.76 44.27 45.82 47.36 50.30 50.26 54.06 51.34 47.96 55.24 58.99 59.07 59.79 59.80 58.69 57.96 57.65 57.20 58.21 58.72 61.72 63.81 64.99 64.98 65.57 65.41 64.92 64.51 63.87 62.97 62.62 63.29 62.52 64.36 64.05 63.63 64.38 64.14 63.32 61.94 60.37 58.74 58.21 58.19 57.59 56.62 57.44 56.67 56.51
46.15 46.82 43.36 47.30 50.82 48.48 49.88 44.68 49.17 56.27 57.36 57.66 58.10 57.85 57.77 57.69 57.65 59.11 59.94 60.13 61.46 63.60 64.73 65.23 64.76 64.36 63.64 62.28 59.95 59.61 59.37 60.57 61.38 62.26 62.07 61.23 60.55 59.89 58.22 57.71 56.43 56.85 56.98 56.17 56.24 55.56 54.85 54.53 54.09
45.97 42.17 43.31 44.28 48.42 49.37 48.54 45.52 49.71 56.34 56.33 56.40 57.43 57.51 57.73 58.18 58.92 60.32 61.87 62.60 63.09 64.44 65.02 63.98 64.65 63.52 62.60 61.65 59.09 58.97 57.34 57.86 57.62 57.77 56.66 56.21 55.75 56.31 55.77 55.72 56.40 56.73 55.88 55.30 53.92 52.85 52.35 50.99 51.03
42.99 41.95 43.88 43.55 46.82 48.23 46.97 47.44 49.59 54.90 56.09 55.77 56.84 57.65 57.71 57.96 57.82 60.19 62.17 63.25 63.93 65.17 65.25 63.99 64.18 59.49 57.99 58.95 58.40 56.33 55.30 54.29 54.65 54.76 55.12 55.57 55.57 56.07 56.48 56.11 55.67 54.84 53.02 51.65 51.59 50.99 51.27 50.77 50.74
46.51 45.54 44.03 45.95 47.53 48.04 47.14 48.09 49.07 54.15 55.99 55.58 56.35 56.81 57.22 57.49 59.28 61.44 62.66 63.52 63.65 62.82 63.55 63.43 62.45 60.89 60.25 61.51 58.22 55.76 54.00 55.37 56.34 56.84 56.23 55.98 55.94 55.89 55.95 54.59 53.35 52.27 51.26 51.21 51.11 50.34 49.45 48.76 50.31
46.13 45.25 45.28 46.26 47.24 48.75 48.66 47.96 49.66 51.90 54.61 56.01 56.44 56.78 57.20 58.01 59.71 60.58 62.23 63.30 63.24 62.60 63.07 63.43 63.99 64.10 63.33 61.81 60.15 59.50 58.43 58.41 57.80 56.66 55.95 55.65 55.50 54.47 53.27 52.73 51.93 51.52 50.57 50.73 50.34 49.67 48.15 48.12 48.94
46.57 45.61 45.48 45.12 47.09 48.98 48.54 46.74 48.33 49.85 52.37 53.70 55.46 57.24 57.79 58.82 59.34 60.20 61.27 62.61 63.24 63.08 63.96 64.01 63.55 62.64 61.33 60.51 59.57 58.93 57.83 56.66 55.56 55.41 55.04 54.65 54.46 53.87 52.56 52.42 51.95 51.38 50.92 49.38 49.86 49.30 48.10 45.84 47.29
44.44 47.57 46.87 46.14 45.59 42.53 47.76 40.77 47.43 49.38 49.43 51.61 53.59 55.67 57.58 58.25 58.35 58.59 58.29 59.76 61.26 62.01 62.50 60.99 60.87 60.41 60.00 59.61 58.52 57.72 57.69 56.64 57.06 57.75 56.12 55.61 53.86 52.41 51.75 51.63 51.67 51.31 51.17 50.21 49.80 48.91 48.56 47.30 44.89
46.10 48.26 47.44 46.30 46.05 45.03 44.86 42.53 46.48 49.14 48.01 49.59 53.04 55.55 56.91 57.21 56.84 55.44 55.91 56.96 57.93 58.71 59.38 59.60 59.33 58.51 58.71 58.69 58.27 58.66 57.24 56.93 56.62 55.98 54.24 54.56 54.48 52.63 51.35 51.30 51.49 51.09 50.80 50.49 49.97 49.06 48.29 47.44 45.50
50.16 48.64 48.18 47.85 46.51 39.92 43.64 42.86 42.65 46.95 48.79 50.86 52.96 55.23 55.86 56.05 55.56 55.41 56.39 56.84 56.83 58.20 58.29 58.40 57.97 57.63 58.03 58.21 57.94 57.34 55.98 54.55 54.60 54.08 52.64 52.68 51.96 51.46 51.35 51.01 51.02 50.79 50.28 49.66 49.19 48.94 47.57 46.52 45.58
49.29 45.99 40.33 37.89 38.32 37.13 43.60 42.07 43.99 47.95 49.38 52.52 52.71 54.50 55.15 55.19 54.90 55.01 55.30 55.64 56.41 56.64 57.46 57.54 57.73 56.81 57.50 57.29 56.63 55.90 54.67 52.94 51.66 50.94 50.80 50.01 49.67 49.86 50.31 50.59 50.04 49.38 49.16 49.24 48.85 47.68 46.74 45.88 44.66
46.42 45.23 40.06 31.17 34.58 39.39 42.87 39.80 45.87 49.46 51.02 52.64 54.96 55.58 55.03 54.38 54.93 55.43 55.79 56.15 56.17 56.48 57.41 56.92 56.71 55.80 55.83 55.51 54.55 53.48 51.98 53.20 51.88 51.26 51.02 50.34 49.71 49.82 50.13 49.90 49.39 48.47 48.13 47.87 47.52 46.91 46.37 45.83 44.66
45.66 43.82 46.40 40.40 37.41 38.03 41.80 44.24 48.21 49.05 49.21 50.77 53.77 54.48 53.34 54.16 54.99 55.52 56.01 56.33 56.61 56.85 56.83 57.03 55.91 54.82 54.12 53.30 52.72 51.47 53.02 51.35 50.70 50.64 50.86 50.41 49.91 48.39 47.24 47.16 46.31 46.31 46.57 46.87 46.84 45.91 45.01 44.69 43.57
48.04 48.50 41.41 42.99 32.27 31.02 38.23 39.27 42.59 45.54 47.37 49.74 52.12 52.63 53.17 54.51 54.93 55.58 55.92 56.02 56.06 56.02 55.42 55.84 54.83 53.16 51.28 50.33 49.82 50.24 50.05 50.22 50.58 51.10 48.90 47.07 46.42 46.03 45.77 45.40 45.16 45.03 45.46 45.90 45.68 44.73 44.40 42.69 42.15
45.10 44.35 43.77 43.92 41.40 34.73 33.63 39.55 47.61 47.19 49.27 49.63 52.33 53.03 53.75 54.39 54.64 54.84 54.96 55.07 54.44 53.89 53.68 53.16 51.70 50.38 49.82 48.55 48.28 49.02 49.81 49.34 49.29 48.07 46.05 45.52 45.60 45.13 44.50 44.40 44.44 44.23 44.08 44.50 43.36 43.02 42.76 40.45 40.45
46.96 45.38 45.16 39.10 36.21 39.43 38.55 39.06 47.01 49.22 50.77 51.60 52.04 53.27 54.56 54.93 54.10 53.60 53.06 52.57 51.70 51.49 51.68 51.04 50.69 49.72 48.71 47.35 47.85 47.33 47.72 47.31 46.22 45.02 44.72 45.67 44.54 44.78 44.11 43.57 43.32 43.69 43.31 42.47 41.54 40.36 40.38 39.48 38.62
MSLP
1013.63 1013.08 1012.61 1011.74 1010.60 1008.52 1006.64 1006.94 1007.43 1008.77 1010.40 1010.95 1010.46 1010.98 1011.49 1012.08 1012.77 1014.39 1015.48 1015.44 1015.84 1016.53 1017.25 1017.92 1018.67 1018.98 1019.24 1019.49 1019.84 1019.99 1020.15 1020.24 1020.38 1020.57 1020.65 1020.65 1020.83 1020.96 1021.10 1021.22 1021.20 1021.25 1021.10 1021.30 1021.35 1021.51 1021.54 1021.48 1021.52
1012.80 1012.68 1012.05 1010.35 1009.02 1006.76 1006.06 1007.52 1007.72 1009.59 1011.05 1012.06 1011.71 1012.28 1012.84 1013.67 1014.41 1015.40 1015.36 1015.98 1016.19 1016.96 1017.07 1017.63 1018.91 1019.22 1019.55 1019.80 1020.11 1020.34 1020.44 1020.49 1020.67 1020.89 1020.97 1021.00 1021.28 1021.32 1021.44 1021.49 1021.32 1021.39 1021.30 1021.48 1021.59 1021.67 1021.83 1021.66 1021.62
1012.87 1012.27 1010.55 1009.17 1007.75 1006.60 1006.08 1007.84 1009.27 1011.14 1012.14 1012.95 1013.81 1014.31 1014.35 1015.05 1015.63 1015.78 1015.97 1016.43 1016.29 1016.86 1017.02 1018.00 1019.03 1019.41 1019.71 1020.11 1020.32 1020.56 1020.68 1020.74 1021.12 1021.22 1021.29 1021.58 1021.68 1021.87 1022.00 1022.00 1021.88 1021.82 1021.73 1021.89 1021.86 1021.98 1022.05 1021.90 1021.78
1011.97 1011.37 1010.58 1008.98 1007.17 1007.32 1007.54 1008.76 1010.03 1010.83 1011.80 1013.09 1015.13 1014.93 1015.46 1016.08 1016.00 1016.38 1016.76 1016.61 1016.47 1016.95 1017.22 1018.84 1019.25 1019.58 1020.00 1020.25 1020.52 1020.75 1020.96 1021.24 1021.33 1021.54 1021.75 1021.80 1021.93 1022.18 1022.30 1022.19 1022.20 1022.24 1022.32 1022.21 1022.27 1022.41 1022.37 1022.18 1022.06
1011.63 1010.35 1008.72 1008.13 1007.63 1008.14 1008.26 1009.39 1009.87 1010.55 1011.89 1012.84 1013.54 1014.61 1015.62 1016.24 1016.79 1016.57 1017.08 1016.58 1016.87 1017.02 1017.71 1018.90 1019.64 1019.92 1020.13 1020.38 1020.81 1021.15 1021.34 1021.38 1021.58 1021.89 1021.99 1021.99 1022.22 1022.37 1022.40 1022.47 1022.38 1022.38 1022.49 1022.39 1022.64 1022.58 1022.43 1022.43 1022.36
1010.27 1009.73 1007.97 1007.39 1007.57 1008.60 1008.64 1009.64 1009.83 1010.54 1011.46 1012.69 1013.28 1013.99 1015.17 1016.08 1016.43 1016.70 1017.03 1016.88 1017.54 1017.95 1018.26 1019.16 1020.04 1020.34 1020.51 1020.85 1021.06 1021.32 1021.57 1021.84 1021.96 1022.07 1022.28 1022.42 1022.57 1022.78 1022.77 1022.95 1023.02 1022.89 1022.85 1022.91 1022.91 1022.86 1022.72 1022.62 1022.66
1009.54 1008.70 1007.53 1007.74 1008.10 1008.95 1009.66 1009.96 1010.39 1010.81 1011.29 1011.77 1012.68 1013.42 1015.75 1016.36 1016.78 1016.81 1017.56 1017.83 1017.97 1018.17 1018.52 1019.07 1019.67 1020.53 1020.93 1021.10 1021.34 1021.61 1021.93 1022.06 1022.15 1022.36 1022.56 1022.77 1022.78 1023.02 1023.03 1023.36 1023.09 1023.06 1023.19 1023.18 1023.24 1023.00 1022.93 1022.92 1022.70
1009.66 1008.82 1008.19 1008.03 1008.26 1009.27 1010.25 1010.36 1011.76 1011.95 1011.50 1012.08 1012.76 1013.13 1014.98 1016.21 1017.16 1017.40 1017.70 1017.71 1018.04 1018.42 1018.61 1019.06 1019.68 1020.06 1020.44 1020.98 1021.64 1021.83 1021.92 1022.09 1022.19 1022.40 1022.77 1022.88 1022.97 1023.00 1023.12 1023.27 1023.50 1023.06 1023.25 1023.10 1023.29 1023.06 1022.90 1022.80 1022.74
1010.20 1008.62 1007.55 1008.05 1008.48 1010.44 1010.85 1010.55 1011.22 1011.84 1011.41 1012.20 1012.99 1013.46 1014.07 1015.99 1016.69 1016.99 1017.20 1017.73 1018.33 1018.78 1019.23 1019.55 1019.77 1020.09 1020.50 1020.86 1021.75 1022.09 1022.34 1022.36 1022.50 1022.64 1023.04 1022.83 1022.14 1022.36 1022.50 1023.37 1023.52 1023.20 1023.21 1023.28 1023.21 1023.00 1022.83 1022.61 1022.45
1009.42 1008.10 1007.55 1008.00 1009.14 1010.14 1010.88 1010.65 1010.92 1011.24 1011.69 1012.37 1012.84 1013.99 1014.69 1015.75 1016.34 1016.68 1016.97 1017.66 1018.12 1018.65 1019.28 1019.75 1020.18 1020.68 1021.03 1021.14 1021.51 1021.69 1021.86 1021.95 1022.08 1022.31 1022.75 1022.34 1022.36 1022.39 1022.49 1023.07 1023.37 1023.34 1023.21 1023.15 1023.14 1022.97 1022.63 1022.15 1021.73
1009.17 1008.10 1008.29 1008.98 1009.69 1010.26 1010.39 1010.29 1010.42 1010.32 1010.82 1011.32 1011.83 1013.49 1014.78 1015.53 1016.06 1016.40 1016.71 1017.29 1017.95 1018.66 1019.20 1019.83 1020.69 1021.23 1021.29 1021.24 1021.51 1021.44 1021.76 1022.05 1022.37 1022.60 1022.79 1022.62 1022.56 1022.65 1022.53 1022.47 1022.44 1022.72 1022.89 1022.27 1022.40 1022.18 1022.15 1022.54 1022.34
1009.30 1008.80 1009.02 1009.00 1009.84 1010.26 1010.06 1010.19 1010.08 1010.25 1010.61 1011.14 1011.63 1013.48 1014.32 1014.92 1015.48 1015.88 1016.53 1017.32 1017.84 1018.54 1019.23 1020.11 1020.80 1021.29 1021.44 1021.29 1021.33 1021.82 1021.61 1022.12 1021.99 1022.37 1022.91 1022.60 1022.44 1022.75 1022.86 1022.52 1022.96 1023.12 1022.76 1022.65 1022.55 1022.47 1022.83 1022.73 1022.71
1009.41 1009.31 1009.40 1009.05 1009.54 1010.01 1010.34 1010.18 1010.00 1010.81 1011.38 1011.66 1012.39 1013.60 1014.11 1014.83 1015.41 1015.91 1016.35 1017.07 1017.81 1018.43 1019.36 1020.14 1020.83 1021.14 1021.52 1021.48 1021.73 1022.00 1022.01 1022.11 1022.30 1022.48 1022.79 1022.83 1022.95 1022.96 1022.83 1023.14 1023.23 1023.24 1023.11 1022.86 1022.85 1022.73 1022.67 1022.61 1022.53
1009.16 1009.55 1009.70 1009.48 1009.41 1010.02 1010.32 1010.49 1010.43 1011.47 1011.99 1012.55 1013.21 1013.72 1014.22 1014.74 1015.24 1015.93 1016.72 1017.31 1018.04 1018.55 1019.42 1020.37 1020.88 1021.18 1021.56 1021.94 1022.32 1022.60 1022.89 1022.87 1022.49 1022.79 1023.31 1023.50 1023.49 1023.33 1023.20 1023.26 1023.48 1023.51 1023.42 1023.34 1023.29 1023.35 1022.95 1022.71 1022.56
1009.59 1009.80 1010.19 1010.08 1009.97 1010.12 1009.79 1010.36 1011.39 1012.09 1012.52 1012.94 1013.30 1013.90 1014.35 1014.89 1015.59 1016.15 1016.72 1017.15 1017.71 1018.58 1019.69 1020.62 1021.16 1021.59 1021.97 1022.40 1022.54 1022.96 1023.09 1023.53 1023.74 1023.71 1023.67 1023.55 1023.58 1023.47 1023.53 1023.62 1023.80 1024.02 1024.03 1023.78 1023.60 1023.53 1023.05 1022.71 1022.47
1009.10 1009.30 1009.17 1009.99 1009.80 1010.12 1009.81 1010.49 1012.14 1012.51 1012.77 1013.02 1013.54 1014.28 1014.76 1015.27 1015.79 1016.27 1016.94 1017.26 1017.68 1018.57 1019.88 1020.90 1021.53 1022.14 1022.40 1022.76 1023.14 1023.61 1023.48 1023.97 1023.83 1023.96 1023.80 1023.96 1024.03 1023.96 1024.10 1024.15 1024.42 1024.57 1024.27 1024.02 1023.78 1023.65 1023.44 1022.90 1022.60
1008.56 1008.04 1008.43 1009.45 1009.71 1009.77 1010.00 1010.78 1012.39 1012.85 1013.01 1013.26 1013.80 1014.33 1014.83 1015.76 1016.37 1016.84 1017.29 1017.35 1017.59 1018.56 1019.77 1021.00 1021.40 1021.98 1022.52 1023.10 1022.75 1023.86 1024.12 1024.29 1024.27 1023.95 1024.30 1024.69 1024.51 1024.65 1024.54 1024.51 1024.69 1024.50 1024.21 1024.39 1024.23 1023.93 1023.79 1023.31 1022.81
1007.46 1007.84 1008.48 1008.78 1009.78 1009.63 1010.07 1011.17 1012.28 1012.92 1013.00 1013.34 1013.88 1014.43 1015.06 1015.73 1016.54 1017.34 1017.52 1017.74 1017.76 1018.71 1019.58 1020.74 1021.27 1022.20 1022.95 1023.26 1023.51 1023.90 1024.07 1024.38 1024.12 1024.25 1024.52 1024.64 1024.65 1024.74 1024.50 1024.63 1024.80 1024.51 1024.37 1024.48 1024.46 1024.34 1024.13 1023.56 1023.09
1007.56 1007.79 1008.27 1009.20 1010.18 1009.94 1010.30 1011.18 1012.19 1012.96 1013.09 1013.57 1014.09 1014.63 1015.28 1016.00 1017.01 1017.32 1017.80 1018.29 1018.71 1019.77 1020.40 1020.77 1021.38 1022.07 1022.30 1022.77 1023.24 1023.38 1023.66 1023.86 1023.94 1024.19 1024.53 1024.73 1024.83 1024.80 1024.73 1024.49 1024.78 1024.85 1024.84 1024.76 1024.48 1024.45 1023.99 1023.42 1023.29
1008.06 1008.18 1008.72 1009.89 1010.36 1010.20 1010.63 1011.31 1012.38 1013.01 1013.30 1013.61 1014.04 1014.69 1015.31 1016.08 1016.70 1017.40 1017.79 1018.32 1018.78 1019.34 1019.96 1020.70 1020.79 1021.27 1021.66 1021.96 1021.94 1022.11 1022.61 1023.06 1023.49 1024.28 1024.81 1024.81 1024.93 1025.08 1024.95 1025.11 1025.02 1025.08 1024.53 1024.40 1024.69 1024.60 1024.08 1023.60 1023.45
1008.66 1008.48 1009.11 1009.28 1010.33 1010.54 1010.50 1011.07 1012.12 1013.41 1013.95 1014.34 1014.72 1014.79 1015.29 1015.79 1016.47 1017.24 1017.82 1018.28 1018.84 1019.22 1019.50 1019.65 1020.14 1020.76 1021.12 1021.41 1021.96 1022.52 1023.18 1023.68 1023.93 1024.27 1024.39 1024.82 1025.07 1025.13 1024.99 1024.94 1024.94 1024.77 1024.65 1024.64 1024.72 1024.55 1024.42 1023.88 1023.64
1008.87 1009.53 1009.46 1009.69 1009.70 1009.13 1010.37 1009.34 1010.82 1012.33 1013.27 1014.03 1014.60 1015.07 1015.40 1015.97 1016.60 1017.20 1017.72 1018.21 1018.48 1018.83 1019.14 1019.54 1020.13 1020.77 1021.38 1021.73 1021.83 1022.17 1022.15 1022.33 1023.21 1023.72 1024.05 1024.34 1024.90 1024.77 1024.80 1024.94 1025.03 1025.05 1024.94 1024.78 1024.58 1024.29 1024.53 1024.15 1023.54
1009.86 1010.03 1009.88 1009.90 1009.58 1009.63 1009.87 1009.95 1010.07 1011.65 1012.41 1013.32 1014.24 1014.81 1015.52 1016.16 1016.62 1017.09 1017.63 1018.15 1018.67 1019.37 1019.67 1020.05 1020.47 1021.06 1021.71 1021.96 1022.06 1022.26 1022.59 1023.10 1023.59 1023.93 1024.25 1024.40 1024.53 1024.77 1024.81 1024.88 1024.99 1024.88 1024.69 1024.58 1024.67 1024.61 1024.38 1024.16 1023.86
1010.59 1010.30 1010.23 1010.26 1010.11 1009.61 1009.41 1009.98 1008.90 1009.74 1010.95 1012.48 1013.93 1014.73 1015.46 1016.18 1016.67 1017.21 1017.83 1018.39 1018.98 1019.70 1020.21 1020.58 1020.81 1021.21 1021.93 1022.21 1022.46 1022.63 1022.93 1023.26 1023.47 1023.79 1023.92 1023.95 1024.20 1024.32 1024.47 1024.73 1024.74 1024.75 1024.67 1024.54 1024.36 1024.31 1024.39 1024.27 1024.15
1010.44 1010.01 1009.91 1010.32 1010.28 1009.85 1010.54 1010.34 1009.23 1010.39 1011.44 1011.88 1013.23 1014.26 1015.30 1016.14 1016.67 1017.13 1017.76 1018.38 1018.99 1019.87 1020.45 1020.88 1021.02 1021.48 1021.98 1022.37 1022.66 1022.97 1023.28 1023.48 1023.57 1023.75 1023.71 1024.01 1023.88 1024.03 1024.19 1024.52 1024.59 1024.49 1024.42 1024.35 1024.27 1024.20 1024.06 1024.00 1023.94
1010.35 1010.35 1010.44 1010.54 1010.79 1010.51 1011.12 1009.78 1009.56 1011.12 1011.78 1012.07 1012.96 1014.02 1015.04 1015.79 1016.36 1016.84 1017.53 1018.21 1019.04 1019.76 1020.23 1020.59 1020.98 1021.42 1021.98 1022.47 1023.01 1023.37 1023.50 1023.52 1023.70 1023.89 1024.09 1024.12 1024.19 1024.34 1024.69 1024.73 1024.58 1024.35 1024.16 1024.03 1023.93 1023.85 1023.76 1023.77 1023.69
1010.94 1010.95 1011.76 1011.80 1012.78 1011.84 1010.33 1010.12 1010.53 1011.45 1011.80 1012.28 1012.75 1013.66 1014.64 1015.35 1016.08 1016.66 1017.51 1018.21 1018.80 1019.49 1020.13 1020.56 1020.97 1021.57 1022.31 1022.90 1023.36 1023.69 1023.80 1023.93 1023.95 1024.13 1024.30 1024.38 1024.57 1024.46 1024.48 1024.46 1024.20 1023.91 1023.68 1023.49 1023.44 1023.38 1023.27 1023.31 1023.43
1011.08 1011.68 1011.93 1011.99 1012.04 1011.37 1010.25 1010.17 1009.75 1010.94 1011.52 1012.19 1012.59 1013.34 1014.24 1015.04 1015.89 1016.58 1017.40 1018.37 1019.07 1019.68 1020.41 1020.91 1021.28 1021.97 1022.73 1023.32 1023.69 1023.73 1023.96 1024.03 1024.16 1024.29 1024.36 1024.49 1024.48 1024.40 1024.30 1024.12 1023.91 1023.63 1023.33 1023.06 1023.08 1023.06 1022.77 1022.94 1023.24
1011.72 1011.58 1011.99 1012.00 1012.35 1011.71 1010.96 1009.79 1010.53 1010.85 1011.16 1011.82 1012.35 1013.15 1013.84 1014.68 1015.76 1016.65 1017.64 1018.58 1019.28 1019.90 1020.39 1021.04 1021.80 1022.31 1022.87 1023.45 1023.71 1023.85 1023.83 1023.99 1024.15 1024.26 1024.33 1024.39 1024.44 1024.28 1024.14 1023.93 1023.72 1023.42 1023.18 1023.08 1023.23 1023.13 1022.90 1023.25 1023.24
1011.35 1011.15 1011.47 1011.65 1012.25 1012.57 1012.00 1010.47 1010.87 1011.17 1011.44 1011.79 1012.21 1013.04 1013.71 1014.77 1015.90 1016.99 1017.94 1018.74 1019.37 1019.84 1020.46 1021.19 1021.82 1022.38 1023.02 1023.45 1023.58 1023.62 1023.70 1023.91 1024.07 1024.10 1024.20 1024.30 1024.32 1024.28 1024.07 1023.85 1023.53 1023.21 1023.16 1023.69 1023.46 1023.35 1023.44 1023.02 1022.80
Wind_Speed
6 7 4 6 8 8 7 4 3 9 5 3 8 3 7 16 5 3 7 9 17 15 15 15 12 12 11 12 13 13 13 15 14 13 12 12 12 11 12 12 12 12 13 13 13 12 12 13 13
4 3 6 4 9 10 6 1 5 10 15 11 12 7 4 7 6 8 12 13 18 14 15 16 12 13 13 13 13 13 13 14 13 12 12 12 12 12 11 11 10 11 13 12 12 12 11 11 10
5 5 7 5 8 11 4 3 15 18 11 9 7 8 8 5 6 3 8 14 16 14 13 15 11 12 13 12 12 12 12 12 11 11 12 12 12 11 10 10 9 11 12 11 11 11 10 10 10
5 6 5 9 11 1 4 11 19 17 16 10 11 5 4 3 4 2 12 12 14 13 13 13 10 11 13 12 11 11 10 10 10 9 10 11 11 10 10 9 9 10 11 11 11 10 10 10 10
5 4 8 10 5 2 6 14 15 15 13 5 1 8 7 6 7 15 13 13 14 12 12 13 8 10 12 12 11 10 10 10 10 9 9 10 10 10 10 9 9 10 10 11 11 10 10 10 9
8 5 8 11 6 5 13 8 13 13 13 13 4 8 6 7 13 14 14 12 12 12 12 12 10 9 9 10 10 10 9 9 9 9 8 9 9 9 9 9 9 10 10 10 9 9 9 9 9
11 8 5 2 5 9 11 9 10 9 8 12 5 8 5 8 10 10 12 11 12 12 11 11 11 10 8 8 9 9 9 9 8 8 8 8 9 8 9 8 9 9 8 8 7 7 8 8 9
5 6 6 3 10 12 11 11 16 7 5 6 4 5 7 9 13 13 13 13 12 11 11 9 9 10 10 10 8 7 8 8 9 9 9 9 9 8 7 8 7 7 6 6 6 7 7 7 8
2 7 9 8 12 7 10 9 3 1 3 4 4 1 7 19 16 14 14 11 11 9 9 8 8 8 7 8 8 7 6 7 8 8 7 8 6 7 7 8 4 7 7 7 7 6 5 1 7
8 9 3 6 15 15 6 14 11 8 7 4 7 10 18 18 16 15 14 13 13 12 10 8 7 7 6 5 7 6 6 5 4 5 5 3 3 2 4 5 4 6 4 7 6 4 2 6 4
7 8 5 3 17 14 20 12 8 9 9 9 10 18 19 18 15 15 14 14 12 11 9 9 8 7 5 5 4 4 4 3 3 3 1 3 1 1 2 0 1 1 1 1 1 1 4 6 5
8 4 3 8 13 12 13 10 8 7 9 4 8 20 21 18 17 17 16 13 12 11 11 10 9 7 6 4 4 4 3 2 2 3 1 1 2 2 3 2 0 2 2 3 3 3 4 4 4
12 4 5 12 18 12 10 12 8 6 7 10 17 18 18 16 16 13 11 11 10 10 11 10 9 7 7 5 4 3 2 1 3 1 3 4 3 1 1 2 2 3 3 3 3 3 4 5 6
5 5 6 7 9 6 11 7 7 4 8 13 17 15 15 16 14 11 8 9 9 10 10 9 8 7 7 8 9 7 5 5 2 2 2 1 1 1 2 2 1 2 4 5 5 6 6 6 7
11 10 7 8 12 8 11 10 5 1 8 14 15 13 14 13 10 9 8 8 8 8 11 10 10 10 11 11 9 7 6 6 4 2 3 4 4 4 3 3 3 4 3 4 6 6 7 8 8
7 14 10 9 13 4 7 11 4 5 10 13 13 12 12 12 10 7 4 5 8 10 12 13 11 12 11 9 6 6 7 3 3 2 3 4 5 6 5 4 5 4 4 5 6 7 8 8 9
9 9 11 9 2 8 7 10 4 6 11 12 12 13 13 11 8 5 5 7 10 13 15 15 15 13 10 7 7 7 3 1 2 5 6 6 7 6 5 4 4 5 5 5 6 7 7 8 8
8 8 9 10 5 10 8 7 6 6 12 12 11 11 10 10 6 4 5 6 10 13 15 16 13 9 7 3 4 4 3 3 4 5 5 5 5 5 4 4 4 5 5 5 6 7 7 9 7
4 6 13 8 4 7 6 6 5 6 10 10 11 10 10 8 6 7 7 9 11 13 15 15 13 9 6 5 6 5 5 5 5 4 5 5 5 6 5 5 5 5 4 6 7 7 10 8 8
5 7 7 5 4 5 9 6 4 5 8 9 10 10 9 9 9 9 9 10 12 13 13 14 13 11 8 7 7 6 6 4 4 4 5 5 5 5 5 4 4 5 6 8 8 8 8 9 7
4 3 10 5 7 1 9 8 9 5 6 6 7 6 8 9 11 11 10 11 12 13 14 13 11 12 10 10 6 5 5 5 5 5 5 5 3 2 4 6 6 6 6 6 7 8 10 9 9
5 2 5 11 10 7 8 7 11 9 8 9 9 10 11 12 12 12 13 13 14 13 13 14 14 12 9 9 7 7 2 2 4 2 3 3 2 4 5 5 5 6 6 8 8 7 8 9 10
5 4 4 3 4 5 10 8 10 9 10 12 12 13 13 12 13 15 15 15 14 11 11 10 10 8 8 7 4 3 3 4 3 3 4 2 1 3 5 5 6 8 7 9 10 9 10 9 8
10 8 6 2 3 8 3 7 8 8 7 13 14 15 14 12 14 15 14 13 12 9 8 8 9 9 7 6 6 5 6 4 3 2 4 3 4 4 5 7 8 9 9 10 9 9 10 9 9
7 6 3 4 5 6 3 7 11 2 3 10 17 17 16 14 15 15 15 12 12 10 8 8 9 8 8 7 7 7 6 3 2 4 4 6 6 6 8 9 9 9 11 11 10 10 11 10 9
2 4 3 5 3 1 3 6 4 2 2 6 16 17 16 15 15 15 14 11 10 10 9 8 7 8 8 7 7 5 2 2 3 4 5 5 6 6 8 8 10 12 11 11 11 9 9 10 10
5 5 4 3 1 3 4 4 8 1 4 8 16 17 17 17 15 14 12 10 10 9 8 8 8 8 8 7 5 4 2 3 5 6 5 4 6 6 7 10 12 12 12 12 12 9 10 11 8
4 9 4 3 3 4 4 5 1 4 7 10 16 18 18 16 15 13 12 10 8 8 8 8 6 8 7 6 3 1 2 3 3 2 3 4 6 9 11 12 13 13 12 12 11 9 11 8 7
5 5 1 1 3 3 3 2 3 2 5 11 15 17 17 16 14 12 10 9 9 9 9 9 9 8 6 4 3 2 2 2 2 2 4 6 9 10 11 12 13 13 11 9 9 12 10 8 11
2 4 8 4 5 1 3 3 4 1 2 8 12 15 15 14 12 11 11 12 11 10 10 10 9 8 6 5 5 5 2 2 3 4 6 7 9 11 12 12 12 11 8 7 10 8 9 10 8
Wind_Direction
201 214 236 233 240 236 237 187 71 124 89 74 82 39 80 15 357 41 153 133 134 139 134 154 138 133 134 127 124 127 126 121 117 118 119 109 102 97 90 86 84 84 82 82 78 71 65 60 51
224 199 218 261 254 230 204 162 138 95 102 68 65 88 73 76 37 115 141 144 134 142 153 141 136 136 139 137 135 133 131 127 127 128 116 108 104 96 96 94 90 91 89 86 82 77 69 65 61
231 235 252 244 252 262 265 92 102 106 92 71 35 357 357 49 56 59 106 133 140 149 145 118 136 141 141 135 137 133 133 129 125 115 109 104 101 99 97 92 85 89 88 84 79 73 67 60 51
207 190 216 253 243 59 41 117 126 123 113 115 163 48 37 44 104 110 134 158 138 146 138 126 128 133 133 135 132 134 125 115 107 104 109 107 105 108 107 97 90 88 81 76 73 71 68 59 52
218 250 228 236 227 113 159 123 138 124 107 115 85 157 143 121 128 135 157 156 150 134 122 138 129 126 137 135 132 125 118 110 110 112 109 109 112 112 106 101 95 90 87 81 75 72 64 51 43
212 267 226 224 162 136 128 139 122 130 133 143 179 163 105 130 149 156 159 144 141 140 139 133 125 130 124 122 119 119 115 115 113 109 107 110 108 103 102 94 93 91 86 81 75 65 55 48 38
259 236 279 243 149 150 132 147 106 129 141 136 126 169 102 154 146 150 139 138 152 136 141 145 148 135 111 121 119 120 122 120 118 113 105 103 98 91 83 84 90 82 79 75 69 62 50 45 43
267 266 190 192 188 128 138 124 132 40 89 104 120 181 165 161 146 141 157 145 137 145 147 135 144 157 153 144 121 129 133 133 122 115 115 115 110 107 112 141 75 84 75 70 58 55 57 69 56
263 242 185 134 146 122 160 137 354 196 123 114 89 38 112 144 147 145 143 142 140 144 145 144 146 144 139 141 128 141 127 111 121 130 128 168 136 150 168 72 66 57 57 52 55 63 61 314 128
240 248 158 137 127 116 12 220 180 200 163 198 140 111 130 143 152 151 153 157 160 154 147 136 132 123 137 142 149 138 133 149 140 148 166 173 136 77 15 86 97 79 80 93 88 81 203 260 351
200 253 109 153 136 145 202 226 208 212 208 202 189 149 149 150 154 161 163 160 157 148 136 128 119 129 147 112 140 142 148 140 134 126 276 77 286 205 227 256 174 141 73 345 198 26 25 22 355
243 264 303 140 147 186 185 202 170 183 14 313 172 153 152 156 164 170 165 156 147 146 135 135 131 131 113 129 119 119 130 121 154 84 297 268 247 265 315 352 325 260 6 359 354 42 23 9 2
235 159 207 156 168 191 211 216 103 68 70 114 139 153 155 160 166 161 155 144 140 148 140 135 132 126 123 111 98 69 37 36 30 0 33 340 328 354 215 72 339 359 0 17 359 356 349 339 328
174 135 190 253 155 157 184 133 150 99 122 128 146 154 154 165 163 149 154 152 160 148 137 132 124 114 104 85 68 52 29 355 356 60 73 89 61 141 129 132 89 43 13 20 1 358 337 326 317
131 124 145 167 186 173 162 133 76 333 160 143 154 155 158 164 161 166 176 176 163 148 127 132 112 105 97 89 71 60 43 35 35 51 132 140 166 143 145 99 53 39 37 359 0 335 324 312 312
181 170 150 156 186 144 242 144 60 179 169 160 158 162 165 169 178 149 170 187 163 140 150 129 123 104 100 85 65 37 49 9 104 91 83 85 97 83 94 85 53 24 17 359 346 330 320 318 315
196 167 137 137 349 150 225 131 104 177 180 172 171 166 171 157 161 157 166 179 167 159 153 145 136 126 112 67 69 8 53 28 81 92 82 87 82 79 83 77 59 6 3 354 340 339 330 322 319
150 153 159 152 123 187 179 119 122 164 180 182 175 172 171 178 152 140 145 156 162 157 155 155 142 126 127 93 96 124 153 108 89 95 109 113 100 93 82 72 34 355 356 348 353 339 328 317 315
153 148 147 127 137 152 176 144 121 163 192 185 185 180 174 171 146 131 138 145 136 142 156 156 158 156 152 177 150 146 150 156 142 139 117 114 95 80 42 24 5 348 3 354 349 334 329 325 331
168 157 128 119 136 236 169 147 127 169 189 203 195 188 177 159 144 139 140 147 155 157 153 170 178 170 180 161 166 162 153 148 115 120 112 95 74 52 40 5 354 4 352 354 345 332 324 317 329
102 181 163 149 141 114 184 187 175 151 179 177 204 187 171 163 137 133 139 141 146 155 164 164 153 153 160 147 138 134 123 148 167 158 153 114 107 63 27 15 1 346 331 325 322 325 316 313 310
150 81 135 147 193 195 208 239 175 168 176 191 175 177 159 138 136 139 139 143 141 139 145 144 145 153 156 172 162 179 258 259 55 124 127 131 49 25 9 349 330 315 309 303 307 308 310 304 308
101 166 135 184 229 246 183 253 115 171 199 184 178 167 156 150 149 146 146 140 140 141 145 147 153 151 147 150 163 170 127 103 121 140 162 244 284 318 317 305 299 300 301 305 304 299 302 302 308
143 140 116 166 255 249 263 267 270 184 236 168 174 168 161 161 160 155 148 150 147 153 153 158 156 142 147 145 134 122 123 125 167 197 271 294 309 310 295 311 310 305 303 297 298 294 287 287 294
221 202 228 227 218 256 86 250 263 77 165 185 179 175 172 169 168 166 166 171 165 163 162 166 174 141 127 123 118 116 121 143 249 304 319 316 307 314 315 328 308 308 307 296 286 283 284 293 292
141 272 239 263 231 281 189 243 87 79 301 212 181 178 173 175 176 179 175 175 167 170 168 164 159 132 123 116 113 115 118 18 326 327 317 305 315 321 324 304 305 305 298 288 282 281 287 290 293
138 219 33 126 83 270 259 219 218 191 184 186 182 177 179 182 184 184 179 184 176 174 161 164 149 131 130 120 108 102 80 326 320 317 315 312 307 315 313 310 307 306 302 293 289 287 290 304 298
290 126 185 215 236 245 187 267 295 179 178 182 185 188 185 186 183 186 185 177 175 163 140 138 136 119 115 113 119 115 302 316 335 316 316 327 323 319 317 312 312 308 303 295 295 289 299 300 287
153 190 189 282 290 286 295 114 74 48 181 192 196 194 191 188 187 185 181 173 161 153 143 135 134 138 130 134 139 226 192 175 232 283 330 335 324 322 315 313 309 304 303 305 315 304 308 313 277
273 219 204 236 175 221 314 296 158 146 201 206 202 198 199 192 185 178 170 165 163 154 148 145 138 143 152 159 182 183 208 244 264 321 325 329 320 318 314 310 304 297 302 301 294 316 276 255 285